Time,TemperatureF,DewpointF,PressureIn,WindDirection,WindDirectionDegrees,WindSpeedMPH,WindSpeedGustMPH,Humidity,HourlyPrecipIn,Conditions,Clouds,dailyrainin,SoftwareType,DateUTC
2013-03-09 00:00:00,32.9,29.7,29.76,SSW,203,0.0,0.0,88,0.00,,,0.12,Wunderground v.1.15,2013-03-09 07:00:00,
2013-03-09 00:02:00,32.9,29.5,29.75,ESE,120,0.0,2.0,87,0.00,,,0.00,Wunderground v.1.15,2013-03-09 07:02:00,
2013-03-09 00:04:00,32.9,29.5,29.75,ESE,119,1.0,2.0,87,0.00,,,0.00,Wunderground v.1.15,2013-03-09 07:04:00,
2013-03-09 00:08:00,33.1,29.7,29.75,East,98,1.0,3.0,87,0.00,,,0.00,Wunderground v.1.15,2013-03-09 07:08:00,
2013-03-09 00:10:00,33.1,29.7,29.75,East,99,1.0,2.0,87,0.00,,,0.00,Wunderground v.1.15,2013-03-09 07:10:00,
2013-03-09 00:12:00,33.2,29.5,29.75,East,100,1.0,3.0,86,0.00,,,0.00,Wunderground v.1.15,2013-03-09 07:12:00,
2013-03-09 00:16:00,33.4,29.7,29.75,ESE,113,1.0,3.0,86,0.00,,,0.00,Wunderground v.1.15,2013-03-09 07:16:00,
2013-03-09 00:20:00,33.4,29.4,29.75,ESE,109,1.0,1.0,85,0.00,,,0.00,Wunderground v.1.15,2013-03-09 07:20:00,
2013-03-09 00:22:00,33.4,29.4,29.75,ESE,109,1.0,1.0,85,0.00,,,0.00,Wunderground v.1.15,2013-03-09 07:22:00,
2013-03-09 00:26:00,33.5,29.5,29.75,ESE,105,1.0,1.0,85,0.00,,,0.00,Wunderground v.1.15,2013-03-09 07:26:00,
2013-03-09 00:28:00,33.5,29.5,29.75,ESE,104,1.0,1.0,85,0.00,,,0.00,Wunderground v.1.15,2013-03-09 07:28:00,
2013-03-09 00:30:00,33.4,29.4,29.75,ESE,104,1.0,1.0,85,0.00,,,0.00,Wunderground v.1.15,2013-03-09 07:30:00,
2013-03-09 00:34:00,33.4,29.4,29.75,ESE,104,0.0,1.0,85,0.00,,,0.00,Wunderground v.1.15,2013-03-09 07:34:00,
2013-03-09 00:38:00,33.5,29.5,29.75,ESE,104,0.0,1.0,85,0.00,,,0.00,Wunderground v.1.15,2013-03-09 07:38:00,
2013-03-09 00:40:00,33.5,29.5,29.75,ESE,104,0.0,0.0,85,0.00,,,0.00,Wunderground v.1.15,2013-03-09 07:40:00,
2013-03-09 00:42:00,33.5,29.2,29.75,ESE,104,0.0,0.0,84,0.00,,,0.00,Wunderground v.1.15,2013-03-09 07:42:00,
2013-03-09 00:48:00,33.5,29.2,29.73,ESE,103,0.0,0.0,84,0.00,,,0.00,Wunderground v.1.15,2013-03-09 07:48:00,
2013-03-09 00:50:00,33.5,29.2,29.73,ESE,104,0.0,0.0,84,0.00,,,0.00,Wunderground v.1.15,2013-03-09 07:50:00,
2013-03-09 00:52:00,33.5,29.2,29.73,ESE,104,0.0,0.0,84,0.00,,,0.00,Wunderground v.1.15,2013-03-09 07:52:00,
2013-03-09 00:54:00,33.5,29.2,29.73,ESE,104,0.0,0.0,84,0.00,,,0.00,Wunderground v.1.15,2013-03-09 07:54:00,
2013-03-09 01:00:00,33.7,29.1,29.73,ESE,104,0.0,0.0,83,0.00,,,0.00,Wunderground v.1.15,2013-03-09 08:00:00,
2013-03-09 01:02:00,33.7,29.1,29.73,ESE,104,0.0,1.0,83,0.00,,,0.00,Wunderground v.1.15,2013-03-09 08:02:00,
2013-03-09 01:06:00,33.8,29.2,29.73,ESE,104,0.0,1.0,83,0.00,,,0.00,Wunderground v.1.15,2013-03-09 08:06:00,
2013-03-09 01:08:00,34.0,29.4,29.73,ESE,104,0.0,2.0,83,0.00,,,0.00,Wunderground v.1.15,2013-03-09 08:08:00,
2013-03-09 01:10:00,34.1,29.5,29.73,ESE,104,0.0,0.0,83,0.00,,,0.00,Wunderground v.1.15,2013-03-09 08:10:00,
2013-03-09 01:14:00,34.3,29.4,29.73,ESE,104,0.0,0.0,82,0.00,,,0.00,Wunderground v.1.15,2013-03-09 08:14:00,
2013-03-09 01:16:00,34.3,29.4,29.74,ESE,104,0.0,0.0,82,0.00,,,0.00,Wunderground v.1.15,2013-03-09 08:16:00,
2013-03-09 01:20:00,34.4,29.2,29.74,ESE,104,0.0,1.0,81,0.00,,,0.00,Wunderground v.1.15,2013-03-09 08:20:00,
2013-03-09 01:22:00,34.4,29.2,29.74,ESE,104,0.0,1.0,81,0.00,,,0.00,Wunderground v.1.15,2013-03-09 08:22:00,
2013-03-09 01:26:00,34.6,29.4,29.74,ESE,104,0.0,1.0,81,0.00,,,0.00,Wunderground v.1.15,2013-03-09 08:26:00,
2013-03-09 01:30:00,34.6,29.1,29.74,ESE,104,0.0,0.0,80,0.00,,,0.00,Wunderground v.1.15,2013-03-09 08:30:00,
2013-03-09 01:32:00,34.6,29.1,29.73,ESE,104,0.0,0.0,80,0.00,,,0.00,Wunderground v.1.15,2013-03-09 08:32:00,
2013-03-09 01:36:00,34.7,29.5,29.73,NE,36,1.0,2.0,81,0.00,,,0.00,Wunderground v.1.15,2013-03-09 08:36:00,
2013-03-09 01:40:00,34.7,29.2,29.73,NE,55,2.0,2.0,80,0.00,,,0.00,Wunderground v.1.15,2013-03-09 08:40:00,
2013-03-09 01:44:00,34.9,28.7,29.73,ENE,66,2.0,2.0,78,0.00,,,0.00,Wunderground v.1.15,2013-03-09 08:44:00,
2013-03-09 01:46:00,35.0,28.5,29.72,ENE,67,2.0,2.0,77,0.00,,,0.00,Wunderground v.1.15,2013-03-09 08:46:00,
2013-03-09 01:50:00,35.2,28.4,29.72,ENE,67,1.0,1.0,76,0.00,,,0.00,Wunderground v.1.15,2013-03-09 08:50:00,
2013-03-09 01:52:00,35.3,28.5,29.72,ENE,67,1.0,1.0,76,0.00,,,0.00,Wunderground v.1.15,2013-03-09 08:52:00,
2013-03-09 01:54:00,35.5,28.4,29.72,ENE,67,0.0,1.0,75,0.00,,,0.00,Wunderground v.1.15,2013-03-09 08:54:00,
2013-03-09 01:58:00,35.6,28.5,29.72,ENE,63,0.0,1.0,75,0.00,,,0.00,Wunderground v.1.15,2013-03-09 08:58:00,
2013-03-09 02:00:00,35.6,28.5,29.72,ENE,63,0.0,0.0,75,0.00,,,0.00,Wunderground v.1.15,2013-03-09 09:00:00,
2013-03-09 02:02:00,35.8,28.6,29.70,ENE,63,0.0,1.0,75,0.00,,,0.00,Wunderground v.1.15,2013-03-09 09:02:00,
2013-03-09 02:08:00,35.8,28.6,29.70,ENE,63,0.0,1.0,75,0.00,,,0.00,Wunderground v.1.15,2013-03-09 09:08:00,
2013-03-09 02:10:00,35.8,28.6,29.70,ENE,63,0.0,0.0,75,0.00,,,0.00,Wunderground v.1.15,2013-03-09 09:10:00,
2013-03-09 02:14:00,35.8,29.0,29.70,ENE,63,0.0,0.0,76,0.00,,,0.00,Wunderground v.1.15,2013-03-09 09:14:00,
2013-03-09 02:16:00,35.6,29.1,29.74,ENE,63,0.0,0.0,77,0.00,,,0.00,Wunderground v.1.15,2013-03-09 09:16:00,
2013-03-09 02:18:00,35.5,29.0,29.74,ENE,63,0.0,0.0,77,0.00,,,0.00,Wunderground v.1.15,2013-03-09 09:18:00,
2013-03-09 02:22:00,35.2,29.0,29.74,ENE,63,0.0,0.0,78,0.00,,,0.00,Wunderground v.1.15,2013-03-09 09:22:00,
2013-03-09 02:24:00,35.0,29.1,29.74,ENE,64,0.0,0.0,79,0.00,,,0.00,Wunderground v.1.15,2013-03-09 09:24:00,
2013-03-09 02:28:00,34.9,29.4,29.74,ENE,61,0.0,2.0,80,0.00,,,0.00,Wunderground v.1.15,2013-03-09 09:28:00,
2013-03-09 02:30:00,34.7,29.2,29.74,ENE,61,0.0,0.0,80,0.00,,,0.00,Wunderground v.1.15,2013-03-09 09:30:00,
2013-03-09 02:34:00,34.6,29.1,29.73,ENE,61,0.0,0.0,80,0.00,,,0.00,Wunderground v.1.15,2013-03-09 09:34:00,
2013-03-09 02:36:00,34.4,28.9,29.73,ENE,61,0.0,1.0,80,0.00,,,0.00,Wunderground v.1.15,2013-03-09 09:36:00,
2013-03-09 02:38:00,34.4,28.9,29.73,ENE,62,0.0,1.0,80,0.00,,,0.00,Wunderground v.1.15,2013-03-09 09:38:00,
2013-03-09 02:42:00,34.3,28.8,29.73,ENE,61,0.0,0.0,80,0.00,,,0.00,Wunderground v.1.15,2013-03-09 09:42:00,
2013-03-09 02:44:00,34.3,29.1,29.73,ENE,61,0.0,0.0,81,0.00,,,0.00,Wunderground v.1.15,2013-03-09 09:44:00,
2013-03-09 02:46:00,34.3,29.1,29.73,ENE,61,0.0,0.0,81,0.00,,,0.00,Wunderground v.1.15,2013-03-09 09:46:00,
2013-03-09 02:48:00,34.3,29.1,29.73,ENE,61,0.0,1.0,81,0.00,,,0.00,Wunderground v.1.15,2013-03-09 09:48:00,
2013-03-09 02:50:00,34.1,28.9,29.73,ENE,61,0.0,0.0,81,0.00,,,0.00,Wunderground v.1.15,2013-03-09 09:50:00,
2013-03-09 02:54:00,34.0,28.8,29.73,ENE,61,0.0,0.0,81,0.00,,,0.00,Wunderground v.1.15,2013-03-09 09:54:00,
2013-03-09 02:56:00,34.0,28.8,29.73,ENE,61,0.0,0.0,81,0.00,,,0.00,Wunderground v.1.15,2013-03-09 09:56:00,
2013-03-09 03:00:00,33.8,28.9,29.73,ENE,61,0.0,0.0,82,0.00,,,0.00,Wunderground v.1.15,2013-03-09 10:00:00,
2013-03-09 03:02:00,33.7,28.8,29.73,ENE,61,0.0,0.0,82,0.00,,,0.00,Wunderground v.1.15,2013-03-09 10:02:00,
2013-03-09 03:06:00,33.5,28.6,29.73,ENE,61,0.0,0.0,82,0.00,,,0.00,Wunderground v.1.15,2013-03-09 10:06:00,
2013-03-09 03:08:00,33.4,28.5,29.73,ENE,61,0.0,0.0,82,0.00,,,0.00,Wunderground v.1.15,2013-03-09 10:08:00,
2013-03-09 03:10:00,33.2,28.3,29.73,ENE,61,0.0,0.0,82,0.00,,,0.00,Wunderground v.1.15,2013-03-09 10:10:00,
2013-03-09 03:12:00,33.2,28.3,29.73,ENE,61,0.0,0.0,82,0.00,,,0.00,Wunderground v.1.15,2013-03-09 10:12:00,
2013-03-09 03:16:00,33.2,28.6,29.74,ENE,61,0.0,0.0,83,0.00,,,0.00,Wunderground v.1.15,2013-03-09 10:16:00,
2013-03-09 03:18:00,33.1,28.5,29.74,ENE,61,0.0,0.0,83,0.00,,,0.00,Wunderground v.1.15,2013-03-09 10:18:00,
2013-03-09 03:20:00,33.1,28.5,29.74,ENE,61,0.0,0.0,83,0.00,,,0.00,Wunderground v.1.15,2013-03-09 10:20:00,
2013-03-09 03:22:00,32.9,28.6,29.74,ENE,61,0.0,0.0,84,0.00,,,0.00,Wunderground v.1.15,2013-03-09 10:22:00,
2013-03-09 03:28:00,32.8,28.5,29.74,ENE,61,0.0,0.0,84,0.00,,,0.00,Wunderground v.1.15,2013-03-09 10:28:00,
2013-03-09 03:30:00,32.8,28.5,29.74,ENE,61,0.0,0.0,84,0.00,,,0.00,Wunderground v.1.15,2013-03-09 10:30:00,
2013-03-09 03:32:00,32.8,28.5,29.74,ENE,61,0.0,0.0,84,0.00,,,0.00,Wunderground v.1.15,2013-03-09 10:32:00,
2013-03-09 03:38:00,32.9,28.9,29.74,ENE,61,0.0,0.0,85,0.00,,,0.00,Wunderground v.1.15,2013-03-09 10:38:00,
2013-03-09 03:40:00,32.9,28.9,29.74,ENE,61,0.0,0.0,85,0.00,,,0.00,Wunderground v.1.15,2013-03-09 10:40:00,
2013-03-09 03:44:00,32.9,28.9,29.74,ENE,61,0.0,0.0,85,0.00,,,0.00,Wunderground v.1.15,2013-03-09 10:44:00,
2013-03-09 03:46:00,32.9,28.9,29.73,ENE,61,0.0,0.0,85,0.00,,,0.00,Wunderground v.1.15,2013-03-09 10:46:00,
2013-03-09 03:48:00,32.8,28.8,29.73,ENE,61,0.0,0.0,85,0.00,,,0.00,Wunderground v.1.15,2013-03-09 10:48:00,
2013-03-09 03:50:00,32.8,28.8,29.73,ENE,61,0.0,0.0,85,0.00,,,0.00,Wunderground v.1.15,2013-03-09 10:50:00,
2013-03-09 03:54:00,32.9,28.9,29.73,ENE,61,0.0,0.0,85,0.00,,,0.00,Wunderground v.1.15,2013-03-09 10:54:00,
2013-03-09 03:58:00,32.9,28.9,29.73,ENE,61,0.0,0.0,85,0.00,,,0.00,Wunderground v.1.15,2013-03-09 10:58:00,
2013-03-09 04:00:00,32.9,28.9,29.73,ENE,61,0.0,0.0,85,0.00,,,0.00,Wunderground v.1.15,2013-03-09 11:00:00,
2013-03-09 04:02:00,32.9,28.9,29.74,ENE,61,0.0,0.0,85,0.00,,,0.00,Wunderground v.1.15,2013-03-09 11:02:00,
2013-03-09 04:04:00,32.9,28.9,29.74,ENE,61,0.0,0.0,85,0.00,,,0.00,Wunderground v.1.15,2013-03-09 11:04:00,
2013-03-09 04:08:00,32.9,28.9,29.74,ENE,61,0.0,0.0,85,0.00,,,0.00,Wunderground v.1.15,2013-03-09 11:08:00,
2013-03-09 04:10:00,33.1,29.1,29.74,ENE,61,0.0,0.0,85,0.00,,,0.00,Wunderground v.1.15,2013-03-09 11:10:00,
2013-03-09 04:12:00,33.1,29.1,29.74,ENE,61,0.0,0.0,85,0.00,,,0.00,Wunderground v.1.15,2013-03-09 11:12:00,
2013-03-09 04:16:00,33.2,29.2,29.76,SE,142,0.0,2.0,85,0.00,,,0.00,Wunderground v.1.15,2013-03-09 11:16:00,
2013-03-09 04:20:00,33.2,28.9,29.76,SE,146,0.0,0.0,84,0.00,,,0.00,Wunderground v.1.15,2013-03-09 11:20:00,
2013-03-09 04:22:00,33.2,28.9,29.76,SE,146,0.0,1.0,84,0.00,,,0.00,Wunderground v.1.15,2013-03-09 11:22:00,
2013-03-09 04:26:00,33.2,28.9,29.76,SE,146,1.0,1.0,84,0.00,,,0.00,Wunderground v.1.15,2013-03-09 11:26:00,
2013-03-09 04:30:00,33.2,28.9,29.76,SE,145,0.0,0.0,84,0.00,,,0.00,Wunderground v.1.15,2013-03-09 11:30:00,
2013-03-09 04:32:00,33.2,28.9,29.76,SE,145,0.0,0.0,84,0.00,,,0.00,Wunderground v.1.15,2013-03-09 11:32:00,
2013-03-09 04:34:00,33.2,28.9,29.76,SE,145,0.0,0.0,84,0.00,,,0.00,Wunderground v.1.15,2013-03-09 11:34:00,
2013-03-09 04:40:00,33.2,28.9,29.76,ESE,117,0.0,0.0,84,0.00,,,0.00,Wunderground v.1.15,2013-03-09 11:40:00,
2013-03-09 04:42:00,33.2,28.9,29.76,ESE,123,1.0,2.0,84,0.00,,,0.00,Wunderground v.1.15,2013-03-09 11:42:00,
2013-03-09 04:44:00,33.2,28.9,29.76,ESE,123,1.0,2.0,84,0.00,,,0.00,Wunderground v.1.15,2013-03-09 11:44:00,
2013-03-09 04:46:00,33.4,29.1,29.77,ESE,123,1.0,2.0,84,0.00,,,0.00,Wunderground v.1.15,2013-03-09 11:46:00,
2013-03-09 04:48:00,33.4,29.1,29.77,ESE,119,1.0,2.0,84,0.00,,,0.00,Wunderground v.1.15,2013-03-09 11:48:00,
2013-03-09 04:54:00,33.5,29.2,29.77,ESE,114,1.0,1.0,84,0.00,,,0.00,Wunderground v.1.15,2013-03-09 11:54:00,
2013-03-09 04:56:00,33.5,29.2,29.77,ESE,120,1.0,2.0,84,0.00,,,0.00,Wunderground v.1.15,2013-03-09 11:56:00,
2013-03-09 05:02:00,33.5,28.9,29.76,SE,127,2.0,4.0,83,0.00,,,0.00,Wunderground v.1.15,2013-03-09 12:02:00,
2013-03-09 05:04:00,33.5,28.9,29.76,SE,133,2.0,4.0,83,0.00,,,0.00,Wunderground v.1.15,2013-03-09 12:04:00,
2013-03-09 05:08:00,33.4,28.2,29.76,SE,142,2.0,4.0,81,0.00,,,0.00,Wunderground v.1.15,2013-03-09 12:08:00,
2013-03-09 05:10:00,33.4,27.9,29.76,SSE,159,2.0,2.0,80,0.00,,,0.00,Wunderground v.1.15,2013-03-09 12:10:00,
2013-03-09 05:14:00,33.4,27.3,29.76,SSE,159,1.0,2.0,78,0.00,,,0.00,Wunderground v.1.15,2013-03-09 12:14:00,
2013-03-09 05:20:00,33.4,24.3,29.78,SSW,208,2.0,3.0,69,0.00,,,0.00,Wunderground v.1.15,2013-03-09 12:20:00,
2013-03-09 05:24:00,33.7,22.1,29.78,SSW,209,4.0,5.0,62,0.00,,,0.00,Wunderground v.1.15,2013-03-09 12:24:00,
2013-03-09 05:28:00,33.8,22.5,29.78,South,190,5.0,5.0,63,0.00,,,0.00,Wunderground v.1.15,2013-03-09 12:28:00,
2013-03-09 05:30:00,33.8,23.3,29.78,South,181,5.0,5.0,65,0.00,,,0.00,Wunderground v.1.15,2013-03-09 12:30:00,
2013-03-09 05:32:00,33.7,23.5,29.80,SSW,200,5.0,5.0,66,0.00,,,0.00,Wunderground v.1.15,2013-03-09 12:32:00,
2013-03-09 05:34:00,33.5,24.1,29.80,SSW,194,5.0,8.0,68,0.00,,,0.00,Wunderground v.1.15,2013-03-09 12:34:00,
2013-03-09 05:38:00,33.1,24.0,29.80,SSW,203,5.0,8.0,69,0.00,,,0.00,Wunderground v.1.15,2013-03-09 12:38:00,
2013-03-09 05:40:00,32.9,23.8,29.80,SW,222,4.0,4.0,69,0.00,,,0.00,Wunderground v.1.15,2013-03-09 12:40:00,
2013-03-09 05:44:00,32.8,23.7,29.80,SSE,163,3.0,4.0,69,0.00,,,0.00,Wunderground v.1.15,2013-03-09 12:44:00,
2013-03-09 05:46:00,32.8,23.7,29.82,SSE,162,2.0,4.0,69,0.00,,,0.00,Wunderground v.1.15,2013-03-09 12:46:00,
2013-03-09 05:48:00,32.7,23.6,29.82,SSE,163,2.0,4.0,69,0.00,,,0.00,Wunderground v.1.15,2013-03-09 12:48:00,
2013-03-09 05:54:00,32.8,23.0,29.82,ESE,121,1.0,3.0,67,0.00,,,0.00,Wunderground v.1.15,2013-03-09 12:54:00,
2013-03-09 05:56:00,32.8,23.0,29.82,ESE,108,2.0,4.0,67,0.00,,,0.00,Wunderground v.1.15,2013-03-09 12:56:00,
2013-03-09 06:00:00,32.8,22.7,29.82,SSE,153,3.0,3.0,66,0.00,,,0.00,Wunderground v.1.15,2013-03-09 13:00:00,
2013-03-09 06:02:00,32.8,22.7,29.83,East,87,2.0,3.0,66,0.00,,,0.00,Wunderground v.1.15,2013-03-09 13:02:00,
2013-03-09 06:04:00,32.8,22.7,29.83,ESE,114,2.0,5.0,66,0.00,,,0.00,Wunderground v.1.15,2013-03-09 13:04:00,
2013-03-09 06:06:00,32.8,22.7,29.83,SSE,153,2.0,5.0,66,0.00,,,0.00,Wunderground v.1.15,2013-03-09 13:06:00,
2013-03-09 06:08:00,32.8,22.3,29.83,SE,124,2.0,5.0,65,0.00,,,0.00,Wunderground v.1.15,2013-03-09 13:08:00,
2013-03-09 06:10:00,32.7,23.3,29.83,ESE,106,2.0,2.0,68,0.00,,,0.00,Wunderground v.1.15,2013-03-09 13:10:00,
2013-03-09 06:14:00,32.5,23.5,29.83,SE,136,2.0,4.0,69,0.00,,,0.00,Wunderground v.1.15,2013-03-09 13:14:00,
2013-03-09 06:18:00,32.1,23.8,29.87,ESE,109,3.0,4.0,71,0.00,,,0.00,Wunderground v.1.15,2013-03-09 13:18:00,
2013-03-09 06:20:00,31.9,23.9,29.87,ESE,109,4.0,7.0,72,0.00,,,0.00,Wunderground v.1.15,2013-03-09 13:20:00,
2013-03-09 06:22:00,31.8,24.1,29.87,East,96,5.0,7.0,73,0.00,,,0.00,Wunderground v.1.15,2013-03-09 13:22:00,
2013-03-09 06:24:00,31.5,24.5,29.87,East,96,5.0,7.0,75,0.00,,,0.00,Wunderground v.1.15,2013-03-09 13:24:00,
2013-03-09 06:28:00,31.0,24.9,29.87,East,94,6.0,7.0,78,0.00,,,0.00,Wunderground v.1.15,2013-03-09 13:28:00,
2013-03-09 06:30:00,30.9,25.2,29.87,ESE,112,6.0,8.0,79,0.00,,,0.00,Wunderground v.1.15,2013-03-09 13:30:00,
2013-03-09 06:34:00,30.7,25.3,29.88,SE,130,6.0,8.0,80,0.00,,,0.00,Wunderground v.1.15,2013-03-09 13:34:00,
2013-03-09 06:36:00,30.6,25.2,29.88,ESE,105,5.0,8.0,80,0.00,,,0.00,Wunderground v.1.15,2013-03-09 13:36:00,
2013-03-09 06:38:00,30.6,25.2,29.88,ESE,107,5.0,8.0,80,0.00,,,0.00,Wunderground v.1.15,2013-03-09 13:38:00,
2013-03-09 06:40:00,30.6,25.2,29.88,ESE,118,4.0,4.0,80,0.00,,,0.00,Wunderground v.1.15,2013-03-09 13:40:00,
2013-03-09 06:42:00,30.6,24.9,29.88,ESE,111,3.0,4.0,79,0.00,,,0.00,Wunderground v.1.15,2013-03-09 13:42:00,
2013-03-09 06:48:00,30.9,24.2,29.89,SSE,148,2.0,4.0,76,0.00,,,0.00,Wunderground v.1.15,2013-03-09 13:48:00,
2013-03-09 06:50:00,31.0,23.7,29.89,South,172,2.0,2.0,74,0.00,,,0.00,Wunderground v.1.15,2013-03-09 13:50:00,
2013-03-09 06:54:00,31.3,24.0,29.89,ESE,123,2.0,3.0,74,0.00,,,0.00,Wunderground v.1.15,2013-03-09 13:54:00,
2013-03-09 07:00:00,31.5,23.5,29.89,SSE,157,3.0,3.0,72,0.00,,,0.00,Wunderground v.1.15,2013-03-09 14:00:00,
2013-03-09 07:02:00,31.5,23.5,29.89,SE,130,3.0,4.0,72,0.00,,,0.00,Wunderground v.1.15,2013-03-09 14:02:00,
2013-03-09 07:06:00,31.3,23.3,29.89,SSE,155,5.0,7.0,72,0.00,,,0.00,Wunderground v.1.15,2013-03-09 14:06:00,
2013-03-09 07:08:00,31.2,23.5,29.89,SSE,152,5.0,7.0,73,0.00,,,0.00,Wunderground v.1.15,2013-03-09 14:08:00,
2013-03-09 07:12:00,30.7,23.1,29.89,SSE,160,6.0,9.0,73,0.00,,,0.00,Wunderground v.1.15,2013-03-09 14:12:00,
2013-03-09 07:18:00,31.0,22.4,29.90,SE,127,5.0,9.0,70,0.00,,,0.00,Wunderground v.1.15,2013-03-09 14:18:00,
2013-03-09 07:20:00,31.2,22.5,29.90,SE,125,5.0,5.0,70,0.00,,,0.00,Wunderground v.1.15,2013-03-09 14:20:00,
2013-03-09 07:24:00,31.0,23.7,29.90,ESE,114,5.0,6.0,74,0.00,,,0.00,Wunderground v.1.15,2013-03-09 14:24:00,
2013-03-09 07:26:00,31.0,24.0,29.90,ESE,104,4.0,6.0,75,0.00,,,0.00,Wunderground v.1.15,2013-03-09 14:26:00,
2013-03-09 07:28:00,30.9,24.2,29.90,ESE,117,4.0,6.0,76,0.00,,,0.00,Wunderground v.1.15,2013-03-09 14:28:00,
2013-03-09 07:32:00,30.6,23.9,29.91,SE,128,4.0,5.0,76,0.00,,,0.00,Wunderground v.1.15,2013-03-09 14:32:00,
2013-03-09 07:36:00,30.6,23.3,29.91,SE,146,3.0,5.0,74,0.00,,,0.00,Wunderground v.1.15,2013-03-09 14:36:00,
2013-03-09 07:38:00,30.6,23.0,29.91,SE,146,3.0,5.0,73,0.00,,,0.00,Wunderground v.1.15,2013-03-09 14:38:00,
2013-03-09 07:44:00,30.7,23.4,29.91,ESE,113,3.0,5.0,74,0.00,,,0.00,Wunderground v.1.15,2013-03-09 14:44:00,
2013-03-09 07:46:00,30.7,23.4,29.91,SE,130,3.0,5.0,74,0.00,,,0.00,Wunderground v.1.15,2013-03-09 14:46:00,
2013-03-09 07:50:00,30.7,23.1,29.91,ESE,103,4.0,5.0,73,0.00,,,0.00,Wunderground v.1.15,2013-03-09 14:50:00,
2013-03-09 07:52:00,30.7,23.4,29.91,ESE,106,4.0,5.0,74,0.00,,,0.00,Wunderground v.1.15,2013-03-09 14:52:00,
2013-03-09 07:54:00,30.6,23.6,29.91,ESE,119,5.0,5.0,75,0.00,,,0.00,Wunderground v.1.15,2013-03-09 14:54:00,
2013-03-09 07:56:00,30.6,23.6,29.91,East,96,5.0,5.0,75,0.00,,,0.00,Wunderground v.1.15,2013-03-09 14:56:00,
2013-03-09 08:00:00,30.3,23.6,29.91,SE,124,6.0,7.0,76,0.00,,,0.00,Wunderground v.1.15,2013-03-09 15:00:00,
2013-03-09 08:02:00,30.3,23.6,29.91,SE,126,6.0,7.0,76,0.00,,,0.00,Wunderground v.1.15,2013-03-09 15:02:00,
2013-03-09 08:04:00,30.1,23.4,29.91,SSE,160,6.0,7.0,76,0.00,,,0.00,Wunderground v.1.15,2013-03-09 15:04:00,
2013-03-09 08:10:00,30.1,23.1,29.91,SSE,161,5.0,5.0,75,0.00,,,0.00,Wunderground v.1.15,2013-03-09 15:10:00,
2013-03-09 08:16:00,30.1,23.1,29.93,ESE,119,5.0,5.0,75,0.00,,,0.00,Wunderground v.1.15,2013-03-09 15:16:00,
2013-03-09 08:18:00,30.3,23.3,29.93,ESE,120,5.0,5.0,75,0.00,,,0.00,Wunderground v.1.15,2013-03-09 15:18:00,
2013-03-09 08:20:00,30.3,23.3,29.93,SE,132,5.0,5.0,75,0.00,,,0.00,Wunderground v.1.15,2013-03-09 15:20:00,
2013-03-09 08:24:00,30.3,23.3,29.93,SE,134,5.0,6.0,75,0.00,,,0.00,Wunderground v.1.15,2013-03-09 15:24:00,
2013-03-09 08:26:00,30.3,23.3,29.93,ESE,105,4.0,6.0,75,0.00,,,0.00,Wunderground v.1.15,2013-03-09 15:26:00,
2013-03-09 08:30:00,30.4,23.4,29.93,East,98,5.0,6.0,75,0.00,,,0.00,Wunderground v.1.15,2013-03-09 15:30:00,
2013-03-09 08:32:00,30.4,23.4,29.94,ESE,105,5.0,6.0,75,0.00,,,0.00,Wunderground v.1.15,2013-03-09 15:32:00,
2013-03-09 08:34:00,30.4,23.4,29.94,East,96,4.0,6.0,75,0.00,,,0.00,Wunderground v.1.15,2013-03-09 15:34:00,
2013-03-09 08:36:00,30.6,23.6,29.94,ESE,114,4.0,7.0,75,0.00,,,0.00,Wunderground v.1.15,2013-03-09 15:36:00,
2013-03-09 08:38:00,30.6,23.6,29.94,ESE,109,4.0,11.0,75,0.00,,,0.00,Wunderground v.1.15,2013-03-09 15:38:00,
2013-03-09 08:40:00,30.6,23.3,29.94,ESE,103,4.0,4.0,74,0.00,,,0.00,Wunderground v.1.15,2013-03-09 15:40:00,
2013-03-09 08:44:00,30.7,23.4,29.94,ESE,111,5.0,5.0,74,0.00,,,0.00,Wunderground v.1.15,2013-03-09 15:44:00,
2013-03-09 08:46:00,30.7,23.1,29.93,ESE,111,5.0,9.0,73,0.00,,,0.00,Wunderground v.1.15,2013-03-09 15:46:00,
2013-03-09 08:50:00,30.9,22.9,29.93,East,97,5.0,5.0,72,0.00,,,0.00,Wunderground v.1.15,2013-03-09 15:50:00,
2013-03-09 08:52:00,31.0,23.0,29.93,ESE,107,5.0,5.0,72,0.00,,,0.00,Wunderground v.1.15,2013-03-09 15:52:00,
2013-03-09 08:56:00,31.3,23.3,29.93,East,99,3.0,5.0,72,0.00,,,0.00,Wunderground v.1.15,2013-03-09 15:56:00,
2013-03-09 08:58:00,31.3,23.0,29.93,ESE,120,3.0,5.0,71,0.00,,,0.00,Wunderground v.1.15,2013-03-09 15:58:00,
2013-03-09 09:00:00,31.5,23.2,29.93,ESE,113,2.0,3.0,71,0.00,,,0.00,Wunderground v.1.15,2013-03-09 16:00:00,
2013-03-09 09:02:00,31.5,22.5,29.94,ENE,78,2.0,3.0,69,0.00,,,0.00,Wunderground v.1.15,2013-03-09 16:02:00,
2013-03-09 09:06:00,31.8,22.8,29.94,ESE,113,2.0,4.0,69,0.00,,,0.00,Wunderground v.1.15,2013-03-09 16:06:00,
2013-03-09 09:08:00,31.8,22.4,29.94,ESE,115,2.0,4.0,68,0.00,,,0.00,Wunderground v.1.15,2013-03-09 16:08:00,
2013-03-09 09:10:00,31.9,22.5,29.94,ESE,117,3.0,3.0,68,0.00,,,0.00,Wunderground v.1.15,2013-03-09 16:10:00,
2013-03-09 09:12:00,31.9,21.5,29.94,ESE,119,3.0,3.0,65,0.00,,,0.00,Wunderground v.1.15,2013-03-09 16:12:00,
2013-03-09 09:14:00,32.1,22.0,29.94,ESE,107,3.0,4.0,66,0.00,,,0.00,Wunderground v.1.15,2013-03-09 16:14:00,
2013-03-09 09:18:00,32.2,22.1,29.96,ESE,107,3.0,4.0,66,0.00,,,0.00,Wunderground v.1.15,2013-03-09 16:18:00,
2013-03-09 09:20:00,32.4,22.7,29.96,ESE,110,2.0,2.0,67,0.00,,,0.00,Wunderground v.1.15,2013-03-09 16:20:00,
2013-03-09 09:24:00,32.5,22.4,29.96,ESE,111,2.0,2.0,66,0.00,,,0.00,Wunderground v.1.15,2013-03-09 16:24:00,
2013-03-09 09:26:00,32.7,22.6,29.96,ESE,111,1.0,2.0,66,0.00,,,0.00,Wunderground v.1.15,2013-03-09 16:26:00,
2013-03-09 09:28:00,32.8,22.3,29.96,ESE,107,1.0,4.0,65,0.00,,,0.00,Wunderground v.1.15,2013-03-09 16:28:00,
2013-03-09 09:32:00,32.8,22.0,29.95,ESE,107,2.0,2.0,64,0.00,,,0.00,Wunderground v.1.15,2013-03-09 16:32:00,
2013-03-09 09:36:00,32.8,21.2,29.95,ESE,107,1.0,2.0,62,0.00,,,0.00,Wunderground v.1.15,2013-03-09 16:36:00,
2013-03-09 09:38:00,32.8,21.6,29.95,East,84,1.0,2.0,63,0.00,,,0.00,Wunderground v.1.15,2013-03-09 16:38:00,
2013-03-09 09:42:00,32.9,21.7,29.95,East,89,1.0,4.0,63,0.00,,,0.00,Wunderground v.1.15,2013-03-09 16:42:00,
2013-03-09 09:44:00,33.1,21.5,29.95,East,89,1.0,4.0,62,0.00,,,0.00,Wunderground v.1.15,2013-03-09 16:44:00,
2013-03-09 09:46:00,33.1,21.1,29.95,East,89,1.0,4.0,61,0.00,,,0.00,Wunderground v.1.15,2013-03-09 16:46:00,
2013-03-09 09:50:00,33.2,21.2,29.95,East,89,1.0,1.0,61,0.00,,,0.00,Wunderground v.1.15,2013-03-09 16:50:00,
2013-03-09 09:52:00,33.4,21.0,29.95,East,89,1.0,2.0,60,0.00,,,0.00,Wunderground v.1.15,2013-03-09 16:52:00,
2013-03-09 09:56:00,33.5,21.9,29.95,East,88,1.0,2.0,62,0.00,,,0.00,Wunderground v.1.15,2013-03-09 16:56:00,
2013-03-09 09:58:00,33.7,21.3,29.95,East,88,1.0,2.0,60,0.00,,,0.00,Wunderground v.1.15,2013-03-09 16:58:00,
2013-03-09 10:00:00,33.8,21.8,29.95,SE,131,1.0,3.0,61,0.00,,,0.00,Wunderground v.1.15,2013-03-09 17:00:00,
2013-03-09 10:04:00,34.0,21.6,29.95,SE,129,2.0,3.0,60,0.00,,,0.00,Wunderground v.1.15,2013-03-09 17:04:00,
2013-03-09 10:08:00,34.1,21.3,29.95,ESE,111,2.0,3.0,59,0.00,,,0.00,Wunderground v.1.15,2013-03-09 17:08:00,
2013-03-09 10:10:00,34.1,20.9,29.95,ESE,111,2.0,2.0,58,0.00,,,0.00,Wunderground v.1.15,2013-03-09 17:10:00,
2013-03-09 10:12:00,34.3,21.4,29.95,SE,132,2.0,2.0,59,0.00,,,0.00,Wunderground v.1.15,2013-03-09 17:12:00,
2013-03-09 10:14:00,34.3,19.8,29.95,SE,132,2.0,3.0,55,0.00,,,0.00,Wunderground v.1.15,2013-03-09 17:14:00,
2013-03-09 10:18:00,34.3,20.2,29.97,SE,135,2.0,3.0,56,0.00,,,0.00,Wunderground v.1.15,2013-03-09 17:18:00,
2013-03-09 10:20:00,34.3,20.2,29.97,SE,138,2.0,2.0,56,0.00,,,0.00,Wunderground v.1.15,2013-03-09 17:20:00,
2013-03-09 10:22:00,34.3,19.8,29.97,SE,138,1.0,2.0,55,0.00,,,0.00,Wunderground v.1.15,2013-03-09 17:22:00,
2013-03-09 10:24:00,34.3,20.2,29.97,ESE,109,1.0,3.0,56,0.00,,,0.00,Wunderground v.1.15,2013-03-09 17:24:00,
2013-03-09 10:28:00,33.8,19.3,29.97,SE,125,1.0,3.0,55,0.00,,,0.00,Wunderground v.1.15,2013-03-09 17:28:00,
2013-03-09 10:30:00,33.8,20.6,29.97,SE,124,1.0,1.0,58,0.00,,,0.00,Wunderground v.1.15,2013-03-09 17:30:00,
2013-03-09 10:32:00,33.8,20.6,29.98,SE,125,1.0,1.0,58,0.00,,,0.00,Wunderground v.1.15,2013-03-09 17:32:00,
2013-03-09 10:36:00,33.8,20.6,29.98,SE,125,1.0,1.0,58,0.00,,,0.00,Wunderground v.1.15,2013-03-09 17:36:00,
2013-03-09 10:40:00,34.0,20.8,29.98,ESE,115,1.0,1.0,58,0.00,,,0.00,Wunderground v.1.15,2013-03-09 17:40:00,
2013-03-09 10:42:00,33.8,21.0,29.98,SSE,159,1.0,2.0,59,0.00,,,0.00,Wunderground v.1.15,2013-03-09 17:42:00,
2013-03-09 10:44:00,33.8,21.4,29.98,ESE,103,1.0,2.0,60,0.00,,,0.00,Wunderground v.1.15,2013-03-09 17:44:00,
2013-03-09 10:46:00,33.8,21.0,29.98,ENE,69,1.0,2.0,59,0.00,,,0.00,Wunderground v.1.15,2013-03-09 17:46:00,
2013-03-09 10:48:00,33.8,21.0,29.98,ESE,105,1.0,2.0,59,0.00,,,0.00,Wunderground v.1.15,2013-03-09 17:48:00,
2013-03-09 10:52:00,33.8,21.8,29.98,ESE,103,1.0,1.0,61,0.00,,,0.00,Wunderground v.1.15,2013-03-09 17:52:00,
2013-03-09 10:54:00,34.0,22.0,29.98,ESE,103,1.0,1.0,61,0.00,,,0.00,Wunderground v.1.15,2013-03-09 17:54:00,
2013-03-09 10:56:00,34.0,22.3,29.98,ENE,69,1.0,1.0,62,0.00,,,0.00,Wunderground v.1.15,2013-03-09 17:56:00,
2013-03-09 10:58:00,34.0,23.1,29.98,East,86,1.0,3.0,64,0.00,,,0.00,Wunderground v.1.15,2013-03-09 17:58:00,
2013-03-09 11:02:00,33.7,22.8,29.98,East,85,2.0,3.0,64,0.00,,,0.00,Wunderground v.1.15,2013-03-09 18:02:00,
2013-03-09 11:06:00,33.4,22.1,29.98,ESE,122,2.0,3.0,63,0.00,,,0.00,Wunderground v.1.15,2013-03-09 18:06:00,
2013-03-09 11:08:00,33.5,22.6,29.98,East,94,2.0,3.0,64,0.00,,,0.00,Wunderground v.1.15,2013-03-09 18:08:00,
2013-03-09 11:10:00,33.5,22.6,29.98,ESE,107,2.0,2.0,64,0.00,,,0.00,Wunderground v.1.15,2013-03-09 18:10:00,
2013-03-09 11:16:00,33.2,22.0,29.98,ESE,121,1.0,2.0,63,0.00,,,0.00,Wunderground v.1.15,2013-03-09 18:16:00,
2013-03-09 11:18:00,33.4,22.9,29.98,ESE,122,1.0,2.0,65,0.00,,,0.00,Wunderground v.1.15,2013-03-09 18:18:00,
2013-03-09 11:24:00,33.4,22.9,29.98,SE,142,1.0,1.0,65,0.00,,,0.00,Wunderground v.1.15,2013-03-09 18:24:00,
2013-03-09 11:26:00,33.4,22.9,29.98,SE,141,0.0,1.0,65,0.00,,,0.00,Wunderground v.1.15,2013-03-09 18:26:00,
2013-03-09 11:28:00,33.4,23.3,29.98,SE,141,1.0,1.0,66,0.00,,,0.00,Wunderground v.1.15,2013-03-09 18:28:00,
2013-03-09 11:30:00,33.4,23.6,29.98,East,92,1.0,1.0,67,0.00,,,0.00,Wunderground v.1.15,2013-03-09 18:30:00,
2013-03-09 11:34:00,33.4,23.6,29.98,SE,133,1.0,1.0,67,0.00,,,0.00,Wunderground v.1.15,2013-03-09 18:34:00,
2013-03-09 11:36:00,33.2,23.8,29.98,SE,133,1.0,1.0,68,0.00,,,0.00,Wunderground v.1.15,2013-03-09 18:36:00,
2013-03-09 11:40:00,32.9,23.8,29.98,ESE,111,1.0,1.0,69,0.00,,,0.00,Wunderground v.1.15,2013-03-09 18:40:00,
2013-03-09 11:42:00,32.8,23.7,29.98,ESE,111,1.0,1.0,69,0.00,,,0.00,Wunderground v.1.15,2013-03-09 18:42:00,
2013-03-09 11:46:00,32.8,24.4,29.99,ESE,111,1.0,1.0,71,0.00,,,0.00,Wunderground v.1.15,2013-03-09 18:46:00,
2013-03-09 11:48:00,32.7,24.0,29.99,ESE,111,0.0,1.0,70,0.00,,,0.00,Wunderground v.1.15,2013-03-09 18:48:00,
2013-03-09 11:50:00,32.7,24.7,29.99,SE,132,0.0,2.0,72,0.00,,,0.00,Wunderground v.1.15,2013-03-09 18:50:00,
2013-03-09 11:52:00,32.7,24.7,29.99,SE,132,0.0,2.0,72,0.00,,,0.00,Wunderground v.1.15,2013-03-09 18:52:00,
2013-03-09 11:56:00,32.7,24.7,29.99,SE,132,0.0,2.0,72,0.00,,,0.00,Wunderground v.1.15,2013-03-09 18:56:00,
2013-03-09 11:58:00,32.5,24.8,29.99,SE,132,1.0,2.0,73,0.00,,,0.00,Wunderground v.1.15,2013-03-09 18:58:00,
2013-03-09 12:04:00,32.7,25.3,29.99,ESE,110,1.0,2.0,74,0.00,,,0.00,Wunderground v.1.15,2013-03-09 19:04:00,
2013-03-09 12:06:00,32.5,25.1,29.99,ESE,115,1.0,2.0,74,0.00,,,0.00,Wunderground v.1.15,2013-03-09 19:06:00,
2013-03-09 12:10:00,32.4,25.0,29.99,ESE,115,1.0,2.0,74,0.00,,,0.00,Wunderground v.1.15,2013-03-09 19:10:00,
2013-03-09 12:12:00,32.2,24.8,29.99,East,101,1.0,1.0,74,0.00,,,0.00,Wunderground v.1.15,2013-03-09 19:12:00,
2013-03-09 12:14:00,32.2,24.8,29.99,East,101,1.0,1.0,74,0.00,,,0.00,Wunderground v.1.15,2013-03-09 19:14:00,
2013-03-09 12:18:00,32.5,25.8,29.99,East,99,0.0,1.0,76,0.00,,,0.00,Wunderground v.1.15,2013-03-09 19:18:00,
2013-03-09 12:20:00,32.4,25.7,29.99,ENE,76,1.0,1.0,76,0.00,,,0.00,Wunderground v.1.15,2013-03-09 19:20:00,
2013-03-09 12:24:00,32.4,25.7,29.99,ENE,71,1.0,4.0,76,0.00,,,0.00,Wunderground v.1.15,2013-03-09 19:24:00,
2013-03-09 12:26:00,32.4,25.7,29.99,ENE,65,1.0,4.0,76,0.00,,,0.00,Wunderground v.1.15,2013-03-09 19:26:00,
2013-03-09 12:28:00,32.5,26.1,29.99,ENE,65,1.0,4.0,77,0.00,,,0.00,Wunderground v.1.15,2013-03-09 19:28:00,
2013-03-09 12:32:00,32.4,26.0,30.00,East,86,1.0,2.0,77,0.00,,,0.00,Wunderground v.1.15,2013-03-09 19:32:00,
2013-03-09 12:34:00,32.4,26.0,30.00,ENE,67,1.0,2.0,77,0.00,,,0.00,Wunderground v.1.15,2013-03-09 19:34:00,
2013-03-09 12:38:00,32.5,26.1,30.00,East,86,1.0,2.0,77,0.00,,,0.00,Wunderground v.1.15,2013-03-09 19:38:00,
2013-03-09 12:40:00,32.7,26.3,30.00,ENE,61,1.0,2.0,77,0.00,,,0.00,Wunderground v.1.15,2013-03-09 19:40:00,
2013-03-09 12:42:00,32.8,26.4,30.00,ENE,61,1.0,1.0,77,0.00,,,0.00,Wunderground v.1.15,2013-03-09 19:42:00,
2013-03-09 12:44:00,32.8,26.1,30.00,ENE,61,1.0,1.0,76,0.00,,,0.00,Wunderground v.1.15,2013-03-09 19:44:00,
2013-03-09 12:46:00,32.7,25.6,29.99,ENE,78,1.0,1.0,75,0.00,,,0.00,Wunderground v.1.15,2013-03-09 19:46:00,
2013-03-09 12:48:00,32.7,25.6,29.99,ENE,78,1.0,1.0,75,0.00,,,0.00,Wunderground v.1.15,2013-03-09 19:48:00,
2013-03-09 12:50:00,32.7,25.6,29.99,ENE,78,1.0,1.0,75,0.00,,,0.00,Wunderground v.1.15,2013-03-09 19:50:00,
2013-03-09 12:52:00,32.8,26.1,29.99,ENE,78,1.0,1.0,76,0.00,,,0.00,Wunderground v.1.15,2013-03-09 19:52:00,
2013-03-09 12:54:00,33.1,26.0,29.99,ENE,74,1.0,1.0,75,0.00,,,0.00,Wunderground v.1.15,2013-03-09 19:54:00,
2013-03-09 12:58:00,33.2,25.8,29.99,ENE,77,0.0,2.0,74,0.00,,,0.00,Wunderground v.1.15,2013-03-09 19:58:00,
2013-03-09 13:00:00,33.1,25.4,29.99,ENE,76,0.0,0.0,73,0.00,,,0.00,Wunderground v.1.15,2013-03-09 20:00:00,
2013-03-09 13:04:00,33.1,25.4,29.99,ENE,77,0.0,0.0,73,0.00,,,0.00,Wunderground v.1.15,2013-03-09 20:04:00,
2013-03-09 13:06:00,33.2,25.5,29.99,ENE,77,0.0,0.0,73,0.00,,,0.00,Wunderground v.1.15,2013-03-09 20:06:00,
2013-03-09 13:08:00,33.5,26.1,29.99,ENE,77,0.0,0.0,74,0.00,,,0.00,Wunderground v.1.15,2013-03-09 20:08:00,
2013-03-09 13:10:00,33.7,25.6,29.99,ENE,77,0.0,0.0,72,0.00,,,0.00,Wunderground v.1.15,2013-03-09 20:10:00,
2013-03-09 13:12:00,33.8,25.7,29.99,ENE,76,0.0,0.0,72,0.00,,,0.00,Wunderground v.1.15,2013-03-09 20:12:00,
2013-03-09 13:18:00,34.0,26.3,29.97,ENE,67,1.0,2.0,73,0.00,,,0.00,Wunderground v.1.15,2013-03-09 20:18:00,
2013-03-09 13:20:00,33.8,25.7,29.97,ENE,67,1.0,1.0,72,0.00,,,0.00,Wunderground v.1.15,2013-03-09 20:20:00,
2013-03-09 13:24:00,33.7,26.0,29.97,ENE,67,1.0,1.0,73,0.00,,,0.00,Wunderground v.1.15,2013-03-09 20:24:00,
2013-03-09 13:28:00,33.8,26.4,29.97,ENE,68,0.0,1.0,74,0.00,,,0.00,Wunderground v.1.15,2013-03-09 20:28:00,
2013-03-09 13:30:00,34.0,26.6,29.97,ENE,69,0.0,2.0,74,0.00,,,0.00,Wunderground v.1.15,2013-03-09 20:30:00,
2013-03-09 13:32:00,34.0,26.6,29.97,ENE,69,0.0,2.0,74,0.00,,,0.00,Wunderground v.1.15,2013-03-09 20:32:00,
2013-03-09 13:34:00,34.0,26.6,29.97,ENE,69,0.0,2.0,74,0.00,,,0.00,Wunderground v.1.15,2013-03-09 20:34:00,
2013-03-09 13:38:00,33.8,26.7,29.97,ENE,77,1.0,2.0,75,0.00,,,0.01,Wunderground v.1.15,2013-03-09 20:38:00,
2013-03-09 13:40:00,33.7,26.9,29.97,ESE,113,1.0,1.0,76,0.00,,,0.01,Wunderground v.1.15,2013-03-09 20:40:00,
2013-03-09 13:42:00,33.8,27.4,29.97,ESE,115,1.0,1.0,77,0.00,,,0.01,Wunderground v.1.15,2013-03-09 20:42:00,
2013-03-09 13:44:00,33.7,27.3,29.97,ESE,115,1.0,1.0,77,0.00,,,0.01,Wunderground v.1.15,2013-03-09 20:44:00,
2013-03-09 13:46:00,33.5,27.1,29.97,ESE,119,1.0,1.0,77,0.00,,,0.01,Wunderground v.1.15,2013-03-09 20:46:00,
2013-03-09 13:50:00,33.5,27.1,29.97,ESE,119,1.0,1.0,77,0.00,,,0.01,Wunderground v.1.15,2013-03-09 20:50:00,
2013-03-09 13:52:00,33.5,27.4,29.97,ESE,119,1.0,1.0,78,0.00,,,0.01,Wunderground v.1.15,2013-03-09 20:52:00,
2013-03-09 13:54:00,33.7,27.6,29.97,ESE,119,1.0,3.0,78,0.00,,,0.01,Wunderground v.1.15,2013-03-09 20:54:00,
2013-03-09 13:56:00,33.5,27.1,29.97,ESE,119,1.0,3.0,77,0.00,,,0.01,Wunderground v.1.15,2013-03-09 20:56:00,
2013-03-09 14:02:00,33.8,27.7,29.97,ESE,119,0.0,2.0,78,0.00,,,0.01,Wunderground v.1.15,2013-03-09 21:02:00,
2013-03-09 14:06:00,34.0,27.5,29.97,ESE,119,1.0,2.0,77,0.00,,,0.01,Wunderground v.1.15,2013-03-09 21:06:00,
2013-03-09 14:08:00,34.0,27.5,29.97,ESE,119,1.0,2.0,77,0.00,,,0.01,Wunderground v.1.15,2013-03-09 21:08:00,
2013-03-09 14:12:00,34.1,27.3,29.97,NE,44,1.0,1.0,76,0.00,,,0.01,Wunderground v.1.15,2013-03-09 21:12:00,
2013-03-09 14:14:00,34.1,27.0,29.97,NE,44,1.0,1.0,75,0.00,,,0.01,Wunderground v.1.15,2013-03-09 21:14:00,
2013-03-09 14:16:00,34.3,27.5,29.99,ENE,70,0.0,1.0,76,0.00,,,0.01,Wunderground v.1.15,2013-03-09 21:16:00,
2013-03-09 14:18:00,34.4,27.3,29.99,East,90,1.0,1.0,75,0.00,,,0.01,Wunderground v.1.15,2013-03-09 21:18:00,
2013-03-09 14:24:00,34.7,26.9,29.99,East,90,0.0,1.0,73,0.00,,,0.01,Wunderground v.1.15,2013-03-09 21:24:00,
2013-03-09 14:26:00,34.7,26.9,29.99,SSE,165,0.0,1.0,73,0.00,,,0.01,Wunderground v.1.15,2013-03-09 21:26:00,
2013-03-09 14:28:00,34.7,26.3,29.99,SSE,166,1.0,1.0,71,0.00,,,0.01,Wunderground v.1.15,2013-03-09 21:28:00,
2013-03-09 14:30:00,34.7,26.3,29.99,SSE,166,1.0,1.0,71,0.00,,,0.01,Wunderground v.1.15,2013-03-09 21:30:00,
2013-03-09 14:32:00,34.6,26.2,29.99,SSE,166,1.0,1.0,71,0.00,,,0.01,Wunderground v.1.15,2013-03-09 21:32:00,
2013-03-09 14:36:00,34.6,26.2,29.99,ESE,118,1.0,1.0,71,0.00,,,0.01,Wunderground v.1.15,2013-03-09 21:36:00,
2013-03-09 14:38:00,34.4,26.3,29.99,ESE,116,0.0,1.0,72,0.00,,,0.01,Wunderground v.1.15,2013-03-09 21:38:00,
2013-03-09 14:40:00,34.6,26.8,29.99,ESE,116,0.0,0.0,73,0.00,,,0.01,Wunderground v.1.15,2013-03-09 21:40:00,
2013-03-09 14:44:00,34.9,27.1,29.99,ESE,116,0.0,0.0,73,0.00,,,0.01,Wunderground v.1.15,2013-03-09 21:44:00,
2013-03-09 14:46:00,35.0,27.2,30.00,ESE,116,0.0,0.0,73,0.00,,,0.01,Wunderground v.1.15,2013-03-09 21:46:00,
2013-03-09 14:48:00,35.0,26.9,30.00,ESE,116,0.0,0.0,72,0.00,,,0.01,Wunderground v.1.15,2013-03-09 21:48:00,
2013-03-09 14:50:00,35.0,26.9,30.00,ESE,116,0.0,0.0,72,0.00,,,0.01,Wunderground v.1.15,2013-03-09 21:50:00,
2013-03-09 14:52:00,35.0,26.9,30.00,ESE,116,0.0,0.0,72,0.00,,,0.01,Wunderground v.1.15,2013-03-09 21:52:00,
2013-03-09 14:54:00,35.0,26.9,30.00,SSE,159,0.0,3.0,72,0.00,,,0.01,Wunderground v.1.15,2013-03-09 21:54:00,
2013-03-09 14:56:00,35.2,27.1,30.00,SSE,159,1.0,3.0,72,0.00,,,0.01,Wunderground v.1.15,2013-03-09 21:56:00,
2013-03-09 15:00:00,35.2,26.0,30.00,SSE,159,1.0,1.0,69,0.00,,,0.01,Wunderground v.1.15,2013-03-09 22:00:00,
2013-03-09 15:06:00,35.2,26.7,30.00,SSE,159,0.0,1.0,71,0.00,,,0.01,Wunderground v.1.15,2013-03-09 22:06:00,
2013-03-09 15:08:00,35.3,26.8,30.00,SSE,159,0.0,1.0,71,0.00,,,0.01,Wunderground v.1.15,2013-03-09 22:08:00,
2013-03-09 15:10:00,35.3,26.1,30.00,SSE,159,0.0,0.0,69,0.00,,,0.01,Wunderground v.1.15,2013-03-09 22:10:00,
2013-03-09 15:14:00,35.5,26.3,30.00,SSE,159,1.0,1.0,69,0.00,,,0.01,Wunderground v.1.15,2013-03-09 22:14:00,
2013-03-09 15:16:00,35.5,26.7,30.00,SSE,159,1.0,1.0,70,0.00,,,0.01,Wunderground v.1.15,2013-03-09 22:16:00,
2013-03-09 15:18:00,35.5,26.3,30.00,SSE,159,1.0,1.0,69,0.00,,,0.01,Wunderground v.1.15,2013-03-09 22:18:00,
2013-03-09 15:22:00,35.5,26.3,30.00,SSE,159,0.0,1.0,69,0.00,,,0.01,Wunderground v.1.15,2013-03-09 22:22:00,
2013-03-09 15:26:00,35.5,26.7,30.00,SSE,159,0.0,1.0,70,0.00,,,0.01,Wunderground v.1.15,2013-03-09 22:26:00,
2013-03-09 15:32:00,35.2,27.1,30.01,SSE,159,0.0,0.0,72,0.00,,,0.01,Wunderground v.1.15,2013-03-09 22:32:00,
2013-03-09 15:36:00,35.2,27.4,30.01,SSE,159,0.0,0.0,73,0.00,,,0.01,Wunderground v.1.15,2013-03-09 22:36:00,
2013-03-09 15:40:00,35.0,27.2,30.01,SSE,159,0.0,1.0,73,0.00,,,0.01,Wunderground v.1.15,2013-03-09 22:40:00,
2013-03-09 15:42:00,34.9,27.1,30.01,SSE,159,0.0,1.0,73,0.00,,,0.01,Wunderground v.1.15,2013-03-09 22:42:00,
2013-03-09 15:44:00,34.9,27.5,30.01,SSE,159,0.0,1.0,74,0.00,,,0.01,Wunderground v.1.15,2013-03-09 22:44:00,
2013-03-09 15:48:00,34.7,27.3,30.02,SSE,159,0.0,1.0,74,0.00,,,0.01,Wunderground v.1.15,2013-03-09 22:48:00,
2013-03-09 15:50:00,34.7,27.3,30.02,SSE,159,0.0,0.0,74,0.00,,,0.01,Wunderground v.1.15,2013-03-09 22:50:00,
2013-03-09 15:52:00,34.7,27.6,30.02,SSE,159,0.0,0.0,75,0.00,,,0.01,Wunderground v.1.15,2013-03-09 22:52:00,
2013-03-09 15:56:00,34.6,28.4,30.02,NW,311,1.0,3.0,78,0.00,,,0.01,Wunderground v.1.15,2013-03-09 22:56:00,
2013-03-09 15:58:00,34.6,28.8,30.02,NW,311,1.0,3.0,79,0.00,,,0.01,Wunderground v.1.15,2013-03-09 22:58:00,
2013-03-09 16:00:00,34.4,28.9,30.02,NW,311,1.0,1.0,80,0.00,,,0.01,Wunderground v.1.15,2013-03-09 23:00:00,
2013-03-09 16:04:00,34.1,28.9,30.03,NW,305,2.0,3.0,81,0.00,,,0.01,Wunderground v.1.15,2013-03-09 23:04:00,
2013-03-09 16:06:00,34.0,29.1,30.03,NW,305,1.0,3.0,82,0.00,,,0.01,Wunderground v.1.15,2013-03-09 23:06:00,
2013-03-09 16:08:00,33.8,28.9,30.03,NW,305,1.0,3.0,82,0.00,,,0.01,Wunderground v.1.15,2013-03-09 23:08:00,
2013-03-09 16:12:00,33.5,28.9,30.03,NW,305,1.0,3.0,83,0.00,,,0.01,Wunderground v.1.15,2013-03-09 23:12:00,
2013-03-09 16:16:00,33.4,29.1,30.04,NW,305,1.0,3.0,84,0.00,,,0.01,Wunderground v.1.15,2013-03-09 23:16:00,
2013-03-09 16:20:00,33.2,28.9,30.04,NW,305,1.0,1.0,84,0.00,,,0.01,Wunderground v.1.15,2013-03-09 23:20:00,
2013-03-09 16:22:00,33.2,28.9,30.04,NW,305,1.0,2.0,84,0.00,,,0.01,Wunderground v.1.15,2013-03-09 23:22:00,
2013-03-09 16:28:00,32.9,28.6,30.04,NW,314,2.0,4.0,84,0.00,,,0.01,Wunderground v.1.15,2013-03-09 23:28:00,
2013-03-09 16:30:00,32.9,28.9,30.04,NW,315,2.0,3.0,85,0.00,,,0.01,Wunderground v.1.15,2013-03-09 23:30:00,
2013-03-09 16:32:00,33.1,29.1,30.05,NW,315,2.0,3.0,85,0.00,,,0.01,Wunderground v.1.15,2013-03-09 23:32:00,
2013-03-09 16:34:00,33.1,29.1,30.05,NW,315,1.0,3.0,85,0.00,,,0.01,Wunderground v.1.15,2013-03-09 23:34:00,
2013-03-09 16:36:00,33.2,29.2,30.05,NW,313,1.0,3.0,85,0.00,,,0.01,Wunderground v.1.15,2013-03-09 23:36:00,
2013-03-09 16:38:00,33.1,29.1,30.05,NW,313,1.0,3.0,85,0.00,,,0.01,Wunderground v.1.15,2013-03-09 23:38:00,
2013-03-09 16:42:00,33.1,29.1,30.05,NW,313,1.0,2.0,85,0.00,,,0.01,Wunderground v.1.15,2013-03-09 23:42:00,
2013-03-09 16:44:00,33.1,29.1,30.05,NW,313,2.0,2.0,85,0.00,,,0.01,Wunderground v.1.15,2013-03-09 23:44:00,
2013-03-09 16:50:00,33.1,28.8,30.05,NW,313,1.0,1.0,84,0.00,,,0.01,Wunderground v.1.15,2013-03-09 23:50:00,
2013-03-09 16:52:00,33.2,29.2,30.05,NW,313,1.0,2.0,85,0.00,,,0.01,Wunderground v.1.15,2013-03-09 23:52:00,
2013-03-09 16:56:00,33.2,29.2,30.05,NW,313,1.0,2.0,85,0.00,,,0.01,Wunderground v.1.15,2013-03-09 23:56:00,
2013-03-09 17:02:00,33.2,28.9,30.06,NW,313,1.0,1.0,84,0.00,,,0.01,Wunderground v.1.15,2013-03-10 00:02:00,
2013-03-09 17:04:00,33.2,28.9,30.06,NW,313,1.0,1.0,84,0.00,,,0.01,Wunderground v.1.15,2013-03-10 00:04:00,
2013-03-09 17:10:00,33.2,28.9,30.06,NW,313,0.0,1.0,84,0.00,,,0.01,Wunderground v.1.15,2013-03-10 00:10:00,
2013-03-09 17:12:00,33.4,29.1,30.06,NW,313,0.0,0.0,84,0.00,,,0.01,Wunderground v.1.15,2013-03-10 00:12:00,
2013-03-09 17:14:00,33.4,29.4,30.06,NW,313,0.0,0.0,85,0.00,,,0.01,Wunderground v.1.15,2013-03-10 00:14:00,
2013-03-09 17:16:00,33.4,29.1,30.07,NW,313,0.0,1.0,84,0.00,,,0.01,Wunderground v.1.15,2013-03-10 00:16:00,
2013-03-09 17:18:00,33.2,28.9,30.07,NW,313,0.0,1.0,84,0.00,,,0.01,Wunderground v.1.15,2013-03-10 00:18:00,
2013-03-09 17:20:00,33.2,28.9,30.07,NW,313,0.0,1.0,84,0.00,,,0.01,Wunderground v.1.15,2013-03-10 00:20:00,
2013-03-09 17:22:00,33.2,28.9,30.07,NW,313,0.0,0.0,84,0.00,,,0.01,Wunderground v.1.15,2013-03-10 00:22:00,
2013-03-09 17:24:00,33.4,29.4,30.07,NW,313,0.0,0.0,85,0.00,,,0.01,Wunderground v.1.15,2013-03-10 00:24:00,
2013-03-09 17:26:00,33.4,29.4,30.07,NW,313,0.0,0.0,85,0.00,,,0.01,Wunderground v.1.15,2013-03-10 00:26:00,
2013-03-09 17:28:00,33.5,29.5,30.07,NW,313,0.0,0.0,85,0.00,,,0.01,Wunderground v.1.15,2013-03-10 00:28:00,
2013-03-09 17:30:00,33.5,29.5,30.07,NW,313,0.0,0.0,85,0.00,,,0.01,Wunderground v.1.15,2013-03-10 00:30:00,
2013-03-09 17:34:00,33.5,29.2,30.08,NW,313,0.0,0.0,84,0.00,,,0.01,Wunderground v.1.15,2013-03-10 00:34:00,
2013-03-09 17:36:00,33.5,29.5,30.08,NW,313,0.0,0.0,85,0.00,,,0.01,Wunderground v.1.15,2013-03-10 00:36:00,
2013-03-09 17:40:00,33.7,29.7,30.08,NW,313,0.0,0.0,85,0.00,,,0.01,Wunderground v.1.15,2013-03-10 00:40:00,
2013-03-09 17:42:00,33.7,29.7,30.08,NW,313,0.0,0.0,85,0.00,,,0.01,Wunderground v.1.15,2013-03-10 00:42:00,
2013-03-09 17:46:00,33.7,29.4,30.09,NW,313,0.0,0.0,84,0.00,,,0.01,Wunderground v.1.15,2013-03-10 00:46:00,
2013-03-09 17:48:00,33.7,29.4,30.09,NW,313,0.0,0.0,84,0.00,,,0.01,Wunderground v.1.15,2013-03-10 00:48:00,
2013-03-09 17:52:00,33.7,29.4,30.09,NW,313,0.0,0.0,84,0.00,,,0.01,Wunderground v.1.15,2013-03-10 00:52:00,
2013-03-09 17:54:00,33.7,29.4,30.09,NW,313,0.0,0.0,84,0.00,,,0.01,Wunderground v.1.15,2013-03-10 00:54:00,
2013-03-09 17:58:00,33.7,29.4,30.09,NW,313,0.0,0.0,84,0.00,,,0.01,Wunderground v.1.15,2013-03-10 00:58:00,
2013-03-09 18:02:00,33.7,29.1,30.09,NW,313,0.0,0.0,83,0.00,,,0.01,Wunderground v.1.15,2013-03-10 01:02:00,
2013-03-09 18:04:00,33.7,29.4,30.09,NW,313,0.0,0.0,84,0.00,,,0.01,Wunderground v.1.15,2013-03-10 01:04:00,
2013-03-09 18:10:00,33.8,29.5,30.09,NW,313,0.0,0.0,84,0.00,,,0.01,Wunderground v.1.15,2013-03-10 01:10:00,
2013-03-09 18:12:00,33.7,29.4,30.09,NW,313,0.0,3.0,84,0.00,,,0.01,Wunderground v.1.15,2013-03-10 01:12:00,
2013-03-09 18:16:00,33.8,29.5,30.10,NW,313,1.0,3.0,84,0.00,,,0.01,Wunderground v.1.15,2013-03-10 01:16:00,
2013-03-09 18:18:00,33.8,29.5,30.10,NW,313,1.0,3.0,84,0.00,,,0.01,Wunderground v.1.15,2013-03-10 01:18:00,
2013-03-09 18:20:00,33.8,29.5,30.10,NW,313,1.0,1.0,84,0.00,,,0.01,Wunderground v.1.15,2013-03-10 01:20:00,
2013-03-09 18:22:00,33.8,29.5,30.10,NW,313,1.0,1.0,84,0.00,,,0.01,Wunderground v.1.15,2013-03-10 01:22:00,
2013-03-09 18:26:00,33.8,29.5,30.10,NW,313,0.0,1.0,84,0.00,,,0.01,Wunderground v.1.15,2013-03-10 01:26:00,
2013-03-09 18:28:00,33.8,29.5,30.10,NW,313,0.0,1.0,84,0.00,,,0.01,Wunderground v.1.15,2013-03-10 01:28:00,
2013-03-09 18:32:00,33.8,29.5,30.11,NW,313,0.0,0.0,84,0.00,,,0.01,Wunderground v.1.15,2013-03-10 01:32:00,
2013-03-09 18:34:00,33.8,29.5,30.11,NW,313,0.0,0.0,84,0.00,,,0.01,Wunderground v.1.15,2013-03-10 01:34:00,
2013-03-09 18:38:00,33.8,29.5,30.11,NW,313,0.0,2.0,84,0.00,,,0.01,Wunderground v.1.15,2013-03-10 01:38:00,
2013-03-09 18:42:00,33.7,29.4,30.11,SSE,160,1.0,3.0,84,0.00,,,0.01,Wunderground v.1.15,2013-03-10 01:42:00,
2013-03-09 18:44:00,33.7,29.4,30.11,SSE,160,1.0,3.0,84,0.00,,,0.01,Wunderground v.1.15,2013-03-10 01:44:00,
2013-03-09 18:46:00,33.7,29.4,30.12,SSE,161,2.0,3.0,84,0.00,,,0.01,Wunderground v.1.15,2013-03-10 01:46:00,
2013-03-09 18:50:00,33.7,29.4,30.12,SSE,161,1.0,1.0,84,0.00,,,0.01,Wunderground v.1.15,2013-03-10 01:50:00,
2013-03-09 18:52:00,33.7,29.4,30.12,SSE,160,1.0,1.0,84,0.00,,,0.01,Wunderground v.1.15,2013-03-10 01:52:00,
2013-03-09 18:54:00,33.7,29.4,30.12,SSE,161,0.0,1.0,84,0.00,,,0.01,Wunderground v.1.15,2013-03-10 01:54:00,
2013-03-09 18:58:00,33.7,29.4,30.12,SSE,160,0.0,1.0,84,0.00,,,0.01,Wunderground v.1.15,2013-03-10 01:58:00,
2013-03-09 19:00:00,33.7,29.1,30.12,SSE,160,0.0,1.0,83,0.00,,,0.01,Wunderground v.1.15,2013-03-10 02:00:00,
2013-03-09 19:04:00,33.5,28.9,30.13,SSE,160,1.0,3.0,83,0.00,,,0.01,Wunderground v.1.15,2013-03-10 02:04:00,
2013-03-09 19:08:00,33.7,29.1,30.13,SSE,161,1.0,3.0,83,0.00,,,0.01,Wunderground v.1.15,2013-03-10 02:08:00,
2013-03-09 19:10:00,33.7,29.1,30.13,SSE,160,1.0,1.0,83,0.00,,,0.01,Wunderground v.1.15,2013-03-10 02:10:00,
2013-03-09 19:12:00,33.7,29.1,30.13,SSE,160,1.0,1.0,83,0.00,,,0.01,Wunderground v.1.15,2013-03-10 02:12:00,
2013-03-09 19:18:00,33.7,29.1,30.14,SSE,160,0.0,1.0,83,0.00,,,0.01,Wunderground v.1.15,2013-03-10 02:18:00,
2013-03-09 19:22:00,33.7,29.1,30.14,SSE,160,0.0,1.0,83,0.00,,,0.01,Wunderground v.1.15,2013-03-10 02:22:00,
2013-03-09 19:24:00,33.7,29.1,30.14,SSE,160,0.0,1.0,83,0.00,,,0.01,Wunderground v.1.15,2013-03-10 02:24:00,
2013-03-09 19:26:00,33.7,29.1,30.14,SSE,161,0.0,1.0,83,0.00,,,0.01,Wunderground v.1.15,2013-03-10 02:26:00,
2013-03-09 19:28:00,33.8,29.2,30.14,SSE,161,0.0,2.0,83,0.00,,,0.01,Wunderground v.1.15,2013-03-10 02:28:00,
2013-03-09 19:30:00,33.8,28.9,30.14,SSE,161,0.0,0.0,82,0.00,,,0.01,Wunderground v.1.15,2013-03-10 02:30:00,
2013-03-09 19:36:00,33.8,28.9,30.15,SSE,160,1.0,2.0,82,0.00,,,0.01,Wunderground v.1.15,2013-03-10 02:36:00,
2013-03-09 19:38:00,33.8,28.9,30.15,SSE,160,0.0,2.0,82,0.00,,,0.01,Wunderground v.1.15,2013-03-10 02:38:00,
2013-03-09 19:42:00,33.8,29.2,30.15,SSE,161,1.0,2.0,83,0.00,,,0.01,Wunderground v.1.15,2013-03-10 02:42:00,
2013-03-09 19:44:00,33.8,29.2,30.15,SSE,161,1.0,2.0,83,0.00,,,0.01,Wunderground v.1.15,2013-03-10 02:44:00,
2013-03-09 19:46:00,33.8,29.2,30.16,SSE,160,1.0,2.0,83,0.00,,,0.01,Wunderground v.1.15,2013-03-10 02:46:00,
2013-03-09 19:50:00,33.8,29.2,30.16,SSE,160,0.0,1.0,83,0.00,,,0.01,Wunderground v.1.15,2013-03-10 02:50:00,
2013-03-09 19:52:00,33.8,29.2,30.16,SSE,160,1.0,1.0,83,0.00,,,0.01,Wunderground v.1.15,2013-03-10 02:52:00,
2013-03-09 19:54:00,33.8,28.9,30.16,SSE,161,0.0,1.0,82,0.00,,,0.01,Wunderground v.1.15,2013-03-10 02:54:00,
2013-03-09 19:56:00,33.8,28.9,30.16,SSE,160,0.0,1.0,82,0.00,,,0.01,Wunderground v.1.15,2013-03-10 02:56:00,
2013-03-09 19:58:00,33.8,28.6,30.16,SSE,160,0.0,1.0,81,0.00,,,0.01,Wunderground v.1.15,2013-03-10 02:58:00,
2013-03-09 20:00:00,33.8,28.6,30.16,SSE,161,0.0,0.0,81,0.00,,,0.01,Wunderground v.1.15,2013-03-10 03:00:00,
2013-03-09 20:04:00,33.8,28.3,30.16,NNW,330,0.0,0.0,80,0.00,,,0.01,Wunderground v.1.15,2013-03-10 03:04:00,
2013-03-09 20:06:00,34.0,28.2,30.16,NNW,330,1.0,1.0,79,0.00,,,0.01,Wunderground v.1.15,2013-03-10 03:06:00,
2013-03-09 20:08:00,34.0,28.2,30.16,NNW,330,0.0,1.0,79,0.00,,,0.01,Wunderground v.1.15,2013-03-10 03:08:00,
2013-03-09 20:14:00,34.1,28.0,30.16,NNW,330,0.0,2.0,78,0.00,,,0.01,Wunderground v.1.15,2013-03-10 03:14:00,
2013-03-09 20:16:00,34.1,28.0,30.16,NNW,330,0.0,2.0,78,0.00,,,0.01,Wunderground v.1.15,2013-03-10 03:16:00,
2013-03-09 20:18:00,34.1,27.6,30.16,NNW,330,0.0,2.0,77,0.00,,,0.01,Wunderground v.1.15,2013-03-10 03:18:00,
2013-03-09 20:20:00,34.1,27.6,30.16,NNW,330,0.0,0.0,77,0.00,,,0.01,Wunderground v.1.15,2013-03-10 03:20:00,
2013-03-09 20:22:00,34.1,27.6,30.16,NNW,330,0.0,0.0,77,0.00,,,0.01,Wunderground v.1.15,2013-03-10 03:22:00,
2013-03-09 20:28:00,34.1,27.6,30.16,NNW,330,0.0,2.0,77,0.00,,,0.01,Wunderground v.1.15,2013-03-10 03:28:00,
2013-03-09 20:32:00,34.0,27.5,30.17,NNW,330,0.0,0.0,77,0.00,,,0.01,Wunderground v.1.15,2013-03-10 03:32:00,
2013-03-09 20:36:00,34.0,27.2,30.17,NNW,330,0.0,0.0,76,0.00,,,0.01,Wunderground v.1.15,2013-03-10 03:36:00,
2013-03-09 20:40:00,33.8,27.0,30.17,NNW,330,0.0,0.0,76,0.00,,,0.01,Wunderground v.1.15,2013-03-10 03:40:00,
2013-03-09 20:42:00,33.8,27.4,30.17,NNW,330,0.0,0.0,77,0.00,,,0.01,Wunderground v.1.15,2013-03-10 03:42:00,
2013-03-09 20:46:00,33.7,27.3,30.18,NNW,330,0.0,0.0,77,0.00,,,0.01,Wunderground v.1.15,2013-03-10 03:46:00,
2013-03-09 20:50:00,33.7,27.3,30.18,NNW,330,0.0,0.0,77,0.00,,,0.01,Wunderground v.1.15,2013-03-10 03:50:00,
2013-03-09 20:52:00,33.5,27.1,30.18,NNW,330,0.0,0.0,77,0.00,,,0.01,Wunderground v.1.15,2013-03-10 03:52:00,
2013-03-09 20:54:00,33.5,27.1,30.18,NNW,330,0.0,0.0,77,0.00,,,0.01,Wunderground v.1.15,2013-03-10 03:54:00,
2013-03-09 20:56:00,33.4,26.6,30.18,North,32767,0.0,0.0,76,0.00,,,0.01,Wunderground v.1.15,2013-03-10 03:56:00,
2013-03-09 20:58:00,33.4,26.6,30.18,North,32767,0.0,0.0,76,0.00,,,0.01,Wunderground v.1.15,2013-03-10 03:58:00,
2013-03-09 21:00:00,33.2,26.5,30.18,North,32767,0.0,0.0,76,0.00,,,0.01,Wunderground v.1.15,2013-03-10 04:00:00,
2013-03-09 21:02:00,33.2,26.5,30.20,North,32767,0.0,0.0,76,0.00,,,0.01,Wunderground v.1.15,2013-03-10 04:02:00,
2013-03-09 21:06:00,33.1,25.4,30.20,NW,319,1.0,2.0,73,0.00,,,0.01,Wunderground v.1.15,2013-03-10 04:06:00,
2013-03-09 21:08:00,33.1,25.4,30.20,NW,319,1.0,2.0,73,0.00,,,0.01,Wunderground v.1.15,2013-03-10 04:08:00,
2013-03-09 21:14:00,33.2,25.1,30.20,NW,319,1.0,3.0,72,0.00,,,0.01,Wunderground v.1.15,2013-03-10 04:14:00,
2013-03-09 21:18:00,33.1,25.4,30.19,NW,319,0.0,3.0,73,0.00,,,0.01,Wunderground v.1.15,2013-03-10 04:18:00,
2013-03-09 21:20:00,33.1,25.4,30.19,NW,319,0.0,0.0,73,0.00,,,0.01,Wunderground v.1.15,2013-03-10 04:20:00,
2013-03-09 21:24:00,32.9,25.2,30.19,NW,319,0.0,1.0,73,0.00,,,0.01,Wunderground v.1.15,2013-03-10 04:24:00,
2013-03-09 21:26:00,32.8,24.8,30.19,NW,319,0.0,1.0,72,0.00,,,0.01,Wunderground v.1.15,2013-03-10 04:26:00,
2013-03-09 21:30:00,32.8,24.8,30.19,NW,319,0.0,0.0,72,0.00,,,0.01,Wunderground v.1.15,2013-03-10 04:30:00,
2013-03-09 21:32:00,32.7,24.7,30.20,NW,319,0.0,0.0,72,0.00,,,0.01,Wunderground v.1.15,2013-03-10 04:32:00,
2013-03-09 21:34:00,32.7,24.7,30.20,NW,319,0.0,0.0,72,0.00,,,0.01,Wunderground v.1.15,2013-03-10 04:34:00,
2013-03-09 21:38:00,32.5,24.1,30.20,NW,319,0.0,0.0,71,0.00,,,0.01,Wunderground v.1.15,2013-03-10 04:38:00,
2013-03-09 21:40:00,32.4,24.4,30.20,NW,319,0.0,2.0,72,0.00,,,0.01,Wunderground v.1.15,2013-03-10 04:40:00,
2013-03-09 21:42:00,32.4,24.0,30.20,NW,319,0.0,2.0,71,0.00,,,0.01,Wunderground v.1.15,2013-03-10 04:42:00,
2013-03-09 21:44:00,32.4,24.0,30.20,NW,319,1.0,2.0,71,0.00,,,0.01,Wunderground v.1.15,2013-03-10 04:44:00,
2013-03-09 21:50:00,32.4,24.0,30.21,NW,319,1.0,1.0,71,0.00,,,0.01,Wunderground v.1.15,2013-03-10 04:50:00,
2013-03-09 21:52:00,32.4,23.7,30.21,NW,319,0.0,1.0,70,0.00,,,0.01,Wunderground v.1.15,2013-03-10 04:52:00,
2013-03-09 21:54:00,32.4,23.7,30.21,NW,319,0.0,1.0,70,0.00,,,0.01,Wunderground v.1.15,2013-03-10 04:54:00,
2013-03-09 21:56:00,32.2,23.5,30.21,NW,320,1.0,1.0,70,0.00,,,0.01,Wunderground v.1.15,2013-03-10 04:56:00,
2013-03-09 21:58:00,32.2,23.8,30.21,NW,319,1.0,1.0,71,0.00,,,0.01,Wunderground v.1.15,2013-03-10 04:58:00,
2013-03-09 22:00:00,32.1,23.4,30.21,NW,320,1.0,1.0,70,0.00,,,0.01,Wunderground v.1.15,2013-03-10 05:00:00,
2013-03-09 22:02:00,32.1,23.8,30.22,NW,320,1.0,1.0,71,0.00,,,0.01,Wunderground v.1.15,2013-03-10 05:02:00,
2013-03-09 22:04:00,32.1,23.4,30.22,NW,320,1.0,1.0,70,0.00,,,0.01,Wunderground v.1.15,2013-03-10 05:04:00,
2013-03-09 22:06:00,31.9,23.2,30.22,NW,320,0.0,1.0,70,0.00,,,0.01,Wunderground v.1.15,2013-03-10 05:06:00,
2013-03-09 22:10:00,31.8,23.1,30.22,NW,320,0.0,1.0,70,0.00,,,0.01,Wunderground v.1.15,2013-03-10 05:10:00,
2013-03-09 22:12:00,31.8,23.5,30.22,NW,320,0.0,1.0,71,0.00,,,0.01,Wunderground v.1.15,2013-03-10 05:12:00,
2013-03-09 22:18:00,31.5,23.2,30.23,NW,320,0.0,1.0,71,0.00,,,0.01,Wunderground v.1.15,2013-03-10 05:18:00,
2013-03-09 22:20:00,31.5,23.2,30.23,NW,320,0.0,0.0,71,0.00,,,0.01,Wunderground v.1.15,2013-03-10 05:20:00,
2013-03-09 22:22:00,31.3,23.0,30.23,NW,320,0.0,0.0,71,0.00,,,0.01,Wunderground v.1.15,2013-03-10 05:22:00,
2013-03-09 22:26:00,31.2,22.9,30.23,NW,320,0.0,0.0,71,0.00,,,0.01,Wunderground v.1.15,2013-03-10 05:26:00,
2013-03-09 22:28:00,31.2,23.2,30.23,NW,320,0.0,0.0,72,0.00,,,0.01,Wunderground v.1.15,2013-03-10 05:28:00,
2013-03-09 22:30:00,31.0,23.0,30.23,NW,320,0.0,0.0,72,0.00,,,0.01,Wunderground v.1.15,2013-03-10 05:30:00,
2013-03-09 22:32:00,31.0,23.0,30.24,NW,320,0.0,0.0,72,0.00,,,0.01,Wunderground v.1.15,2013-03-10 05:32:00,
2013-03-09 22:34:00,30.9,22.9,30.24,NW,320,0.0,0.0,72,0.00,,,0.01,Wunderground v.1.15,2013-03-10 05:34:00,
2013-03-09 22:38:00,30.7,22.7,30.24,NW,320,0.0,1.0,72,0.00,,,0.01,Wunderground v.1.15,2013-03-10 05:38:00,
2013-03-09 22:42:00,30.6,22.6,30.24,NW,320,0.0,0.0,72,0.00,,,0.01,Wunderground v.1.15,2013-03-10 05:42:00,
2013-03-09 22:48:00,30.4,22.4,30.25,NW,320,0.0,0.0,72,0.00,,,0.01,Wunderground v.1.15,2013-03-10 05:48:00,
2013-03-09 22:50:00,30.4,22.4,30.25,NW,320,0.0,0.0,72,0.00,,,0.01,Wunderground v.1.15,2013-03-10 05:50:00,
2013-03-09 22:52:00,30.3,22.4,30.25,NW,320,0.0,0.0,72,0.00,,,0.01,Wunderground v.1.15,2013-03-10 05:52:00,
2013-03-09 22:56:00,30.3,22.0,30.25,NW,320,0.0,2.0,71,0.00,,,0.01,Wunderground v.1.15,2013-03-10 05:56:00,
2013-03-09 22:58:00,30.3,22.4,30.25,NW,320,0.0,2.0,72,0.00,,,0.01,Wunderground v.1.15,2013-03-10 05:58:00,
2013-03-09 23:02:00,30.3,22.0,30.25,NW,320,1.0,1.0,71,0.00,,,0.01,Wunderground v.1.15,2013-03-10 06:02:00,
2013-03-09 23:04:00,30.4,21.8,30.25,NW,320,1.0,1.0,70,0.00,,,0.01,Wunderground v.1.15,2013-03-10 06:04:00,
2013-03-09 23:06:00,30.4,22.1,30.25,NW,320,1.0,1.0,71,0.00,,,0.01,Wunderground v.1.15,2013-03-10 06:06:00,
2013-03-09 23:08:00,30.6,22.3,30.25,NW,320,1.0,1.0,71,0.00,,,0.01,Wunderground v.1.15,2013-03-10 06:08:00,
2013-03-09 23:12:00,30.7,22.1,30.25,NW,320,0.0,1.0,70,0.00,,,0.01,Wunderground v.1.15,2013-03-10 06:12:00,
2013-03-09 23:14:00,30.7,22.4,30.25,NW,320,0.0,1.0,71,0.00,,,0.01,Wunderground v.1.15,2013-03-10 06:14:00,
2013-03-09 23:16:00,30.7,22.4,30.25,NW,320,1.0,2.0,71,0.00,,,0.01,Wunderground v.1.15,2013-03-10 06:16:00,
2013-03-09 23:20:00,30.9,22.6,30.25,NW,320,1.0,4.0,71,0.00,,,0.01,Wunderground v.1.15,2013-03-10 06:20:00,
2013-03-09 23:22:00,30.9,22.3,30.25,NW,320,1.0,4.0,70,0.00,,,0.01,Wunderground v.1.15,2013-03-10 06:22:00,
2013-03-09 23:28:00,30.9,22.6,30.25,NW,320,1.0,4.0,71,0.00,,,0.01,Wunderground v.1.15,2013-03-10 06:28:00,
2013-03-09 23:30:00,30.9,22.6,30.25,NW,320,1.0,2.0,71,0.00,,,0.01,Wunderground v.1.15,2013-03-10 06:30:00,
2013-03-09 23:32:00,30.7,22.4,30.25,NW,320,1.0,2.0,71,0.00,,,0.01,Wunderground v.1.15,2013-03-10 06:32:00,
2013-03-09 23:38:00,30.7,22.7,30.25,NW,320,1.0,2.0,72,0.00,,,0.01,Wunderground v.1.15,2013-03-10 06:38:00,
2013-03-09 23:42:00,30.7,22.4,30.25,NW,320,1.0,1.0,71,0.00,,,0.01,Wunderground v.1.15,2013-03-10 06:42:00,
2013-03-09 23:48:00,30.7,22.7,30.26,NW,320,0.0,1.0,72,0.00,,,0.01,Wunderground v.1.15,2013-03-10 06:48:00,
2013-03-09 23:50:00,30.7,22.7,30.26,NW,320,0.0,0.0,72,0.00,,,0.01,Wunderground v.1.15,2013-03-10 06:50:00,
2013-03-09 23:54:00,30.7,22.7,30.26,NW,320,0.0,0.0,72,0.00,,,0.01,Wunderground v.1.15,2013-03-10 06:54:00,
2013-03-09 23:56:00,30.7,22.4,30.26,NW,319,0.0,1.0,71,0.00,,,0.01,Wunderground v.1.15,2013-03-10 06:56:00,
2013-03-09 23:58:00,30.7,22.4,30.26,NW,320,1.0,2.0,71,0.00,,,0.01,Wunderground v.1.15,2013-03-10 06:58:00,